Terminal Aerodrome Forecast
Issued by NWS

Home | Current Version | Previous Version | Text Only | Print | Product List | Glossary On
Versions: 1 2 3 4 5 6 7 8 9 10 11 12 13 14 15 16 17 18 19 20 21 22 23 24 25
000
FTUS45 KLKN 290500
TAFELY
TAF
KELY 290520Z 2906/3006 17009KT P6SM SCT200
     FM292100 20010G20KT P6SM FEW120 BKN200=

USA.gov is the U.S. government's official web portal to all federal, state and local government web resources and services.